STARLINK-30081 (57515 NORAD) Tracking and Keplerian Element Data

This shows tracking and keplerian element data for the satellite.

Feedback or suggestion? Click here.




ElementValue
Catalog57515
NameSTARLINK-30081
Epoch Orbit2535
Epoch Day13.21807888
Epoch Year2024
RAAN330.8786
Inclination43.0034
Eccentricity0.0001067
Argument of Perigee267.3327
Mean Anonmoly92.7393
Mean Motion15.02541341
Decay Rate5.906E-05
L11 57515U 23113X 24013.21807888 .00005906 00000+0 45184-3 0 9999
L22 57515 43.0034 330.8786 0001067 267.3327 92.7393 15.02541341 25352



Live tracking and technical data element details for STARLINK-30081 (NORAD 57515). STARLINK-30081 can be tracked NOW for your location showing map with azimuth and elevation plus other details from your city location.







IsCatalogInMostPopularTable: catalog: 57515, numindb: 33
Update: records affected: 1



GetName: 57515 STARLINK-30081

Hit Count: updated at: Thu, 22 Feb 2024 02:13:36 GMT